Tracking 20942 objects as of 15-Jul-2020
HD Live streaming from Space Station
objects crossing your sky now

ARIANE 3 DEB (SYLDA)

Track ARIANE 3 DEB (SYLDA) now!
10-day predictions


NORAD ID: 15680
Int'l Code: 1985-035D
Perigee: 318.2 km
Apogee: 6,995.4 km
Inclination: 6.8 °
Period: 166.6 minutes
Semi major axis: 10027 km
RCS: 7.2153 m2 (large)
Launch date: May 8, 1985
Source: France (FR)
Launch site: FRENCH GUIANA (FRGUI)

Note: This is SATELLITE DEBRIS
aabbcc
Your satellite tracking list
Your tracking list is empty




NASA's NSSDC Master Catalog

Two Line Element Set (TLE):
1 15680U 85035D   20196.32464623  .00013741  00000-0  11789-2 0  9993
2 15680   6.7802 259.2684 3329378 136.5261 255.1452  8.64558547620420
Source of the keplerian elements: AFSPC